• In Uzbekistan
  • List of Countries
  • For 7 days
  • Water Temperature
  • Satellite Maps
  • Weather Map
  • Weather Widgets
  • user-avatar
    Login

    Hourly Weather Akhaltsikhe

    Today, 20 January, Saturday

    Time Temperature Precipitation Wind Pressure Humidity
    00:00 -2°C° 0.2 mm 2 mps 646 mmHg 95%
    01:00 -2°C° 0.1 mm 2 mps 647 mmHg 95%
    02:00 -2°C° 0.1 mm 2 mps 647 mmHg 95%
    03:00 -2°C° 0 mm 3 mps 647 mmHg 98%
    04:00 -2°C° 0.1 mm 2 mps 647 mmHg 97%
    05:00 0°C° 0.1 mm 1 mps 647 mmHg 95%
    06:00 0°C° 0.1 mm 1 mps 648 mmHg 94%
    07:00 0°C° 0 mm 1 mps 648 mmHg 93%
    08:00 0°C° 0 mm 1 mps 648 mmHg 92%
    09:00 0°C° 0 mm 1 mps 648 mmHg 90%
    10:00 +1°C° 0 mm 1 mps 648 mmHg 86%
    11:00 +2°C° 0 mm 1 mps 649 mmHg 82%
    12:00 +3°C° 0 mm 1 mps 649 mmHg 77%
    13:00 +4°C° 0 mm 1 mps 649 mmHg 76%
    14:00 +4°C° 0 mm 1 mps 649 mmHg 75%
    15:00 +4°C° 0 mm 1 mps 649 mmHg 73%
    16:00 +3°C° 0 mm 1 mps 649 mmHg 74%
    17:00 +1°C° 0 mm 1 mps 649 mmHg 75%
    18:00 -2°C° 0 mm 2 mps 649 mmHg 76%
    19:00 -2°C° 0 mm 2 mps 649 mmHg 73%
    20:00 -3°C° 0 mm 2 mps 649 mmHg 70%
    21:00 -3°C° 0 mm 2 mps 649 mmHg 67%
    22:00 -3°C° 0 mm 2 mps 649 mmHg 66%
    23:00 -4°C° 0 mm 3 mps 649 mmHg 65%

    Tomorrow, 21 January, Sunday

    Time Temperature Precipitation Wind Pressure Humidity
    00:00 -5°C° 0 mm 3 mps 649 mmHg 64%
    01:00 -4°C° 0 mm 3 mps 649 mmHg 64%
    02:00 -4°C° 0 mm 3 mps 649 mmHg 64%
    03:00 -4°C° 0 mm 3 mps 649 mmHg 65%
    04:00 -5°C° 0 mm 3 mps 649 mmHg 64%
    05:00 -5°C° 0 mm 3 mps 649 mmHg 63%
    06:00 -5°C° 0 mm 3 mps 649 mmHg 63%
    07:00 -4°C° 0 mm 3 mps 649 mmHg 62%
    08:00 -4°C° 0 mm 3 mps 649 mmHg 61%
    09:00 -2°C° 0 mm 3 mps 649 mmHg 61%
    10:00 0°C° 0 mm 3 mps 649 mmHg 59%
    11:00 +2°C° 0 mm 2 mps 650 mmHg 58%
    12:00 +4°C° 0 mm 2 mps 650 mmHg 57%
    13:00 +4°C° 0 mm 2 mps 650 mmHg 58%
    14:00 +5°C° 0 mm 2 mps 650 mmHg 59%
    15:00 +6°C° 0 mm 1 mps 650 mmHg 60%
    16:00 +3°C° 0 mm 2 mps 650 mmHg 62%
    17:00 +1°C° 0 mm 2 mps 650 mmHg 64%
    18:00 -1°C° 0 mm 2 mps 650 mmHg 66%
    19:00 -2°C° 0 mm 2 mps 649 mmHg 65%
    20:00 -2°C° 0 mm 2 mps 649 mmHg 64%
    21:00 -3°C° 0 mm 2 mps 649 mmHg 63%
    22:00 -4°C° 0 mm 3 mps 648 mmHg 62%
    23:00 -4°C° 0 mm 3 mps 648 mmHg 62%

    Day after tomorrow, 22 January, Monday

    Time Temperature Precipitation Wind Pressure Humidity
    00:00 -4°C° 0 mm 3 mps 647 mmHg 61%
    01:00 -4°C° 0 mm 3 mps 647 mmHg 62%
    02:00 -4°C° 0 mm 3 mps 647 mmHg 62%
    03:00 -4°C° 0 mm 3 mps 646 mmHg 62%
    04:00 -2°C° 0 mm 3 mps 646 mmHg 62%
    05:00 -2°C° 0 mm 3 mps 645 mmHg 63%
    06:00 -2°C° 0 mm 3 mps 645 mmHg 63%
    07:00 -2°C° 0 mm 3 mps 645 mmHg 62%
    08:00 -2°C° 0 mm 3 mps 645 mmHg 62%
    09:00 -1°C° 0 mm 3 mps 645 mmHg 61%
    10:00 0°C° 0 mm 3 mps 645 mmHg 59%
    11:00 +2°C° 0 mm 3 mps 645 mmHg 57%
    12:00 +3°C° 0 mm 4 mps 644 mmHg 55%
    13:00 +4°C° 0 mm 3 mps 644 mmHg 56%
    14:00 +4°C° 0 mm 3 mps 644 mmHg 56%
    15:00 +4°C° 0 mm 3 mps 644 mmHg 57%
    16:00 +2°C° 0 mm 3 mps 644 mmHg 59%
    17:00 +1°C° 0 mm 3 mps 644 mmHg 62%
    18:00 0°C° 0 mm 3 mps 644 mmHg 65%
    19:00 -1°C° 0 mm 3 mps 644 mmHg 64%
    20:00 -1°C° 0 mm 3 mps 644 mmHg 64%
    21:00 -2°C° 0 mm 3 mps 644 mmHg 63%
    22:00 -2°C° 0 mm 3 mps 643 mmHg 63%
    23:00 -2°C° 0 mm 3 mps 643 mmHg 63%

    23 January, Tuesday

    Time Temperature Precipitation Wind Pressure Humidity
    00:00 -4°C° 0 mm 3 mps 643 mmHg 63%
    01:00 -4°C° 0 mm 3 mps 643 mmHg 63%
    02:00 -4°C° 0 mm 3 mps 643 mmHg 64%
    03:00 -4°C° 0 mm 3 mps 643 mmHg 64%
    04:00 -5°C° 0 mm 3 mps 643 mmHg 65%
    05:00 -5°C° 0 mm 3 mps 642 mmHg 65%
    06:00 -5°C° 0 mm 3 mps 642 mmHg 65%
    07:00 -4°C° 0 mm 3 mps 642 mmHg 64%
    08:00 -4°C° 0 mm 3 mps 643 mmHg 64%
    09:00 -2°C° 0 mm 3 mps 643 mmHg 63%
    10:00 -1°C° 0 mm 3 mps 643 mmHg 61%
    11:00 +1°C° 0 mm 3 mps 643 mmHg 60%
    12:00 +2°C° 0 mm 3 mps 643 mmHg 59%
    13:00 +3°C° 0 mm 2 mps 643 mmHg 60%
    14:00 +4°C° 0 mm 2 mps 643 mmHg 62%
    15:00 +4°C° 0 mm 2 mps 643 mmHg 64%
    16:00 +3°C° 0 mm 2 mps 643 mmHg 67%
    17:00 +2°C° 0 mm 2 mps 643 mmHg 70%
    18:00 +1°C° 0 mm 2 mps 643 mmHg 73%
    19:00 +1°C° 0.1 mm 2 mps 643 mmHg 74%
    20:00 -1°C° 0.1 mm 2 mps 643 mmHg 75%
    21:00 -1°C° 0.1 mm 2 mps 643 mmHg 76%
    22:00 -1°C° 0.2 mm 2 mps 643 mmHg 78%
    23:00 +1°C° 0.2 mm 1 mps 644 mmHg 79%

    24 January, Wednesday

    Time Temperature Precipitation Wind Pressure Humidity
    00:00 0°C° 0.2 mm 1 mps 644 mmHg 81%
    01:00 0°C° 0.5 mm 1 mps 644 mmHg 83%
    02:00 0°C° 0.5 mm 1 mps 644 mmHg 86%
    03:00 0°C° 0.5 mm 1 mps 645 mmHg 88%
    04:00 0°C° 0.4 mm 1 mps 645 mmHg 90%
    05:00 -1°C° 0.4 mm 1 mps 645 mmHg 91%
    06:00 -1°C° 0.4 mm 1 mps 646 mmHg 93%
    07:00 -1°C° 0.3 mm 1 mps 646 mmHg 92%
    08:00 0°C° 0.3 mm 1 mps 646 mmHg 92%
    09:00 0°C° 0.3 mm 1 mps 647 mmHg 92%
    10:00 -2°C° 0.1 mm 2 mps 647 mmHg 89%
    11:00 -1°C° 0.1 mm 2 mps 647 mmHg 87%
    12:00 -1°C° 0.1 mm 2 mps 648 mmHg 84%
    13:00 -1°C° 0.1 mm 2 mps 648 mmHg 85%
    14:00 -1°C° 0.1 mm 2 mps 648 mmHg 85%
    15:00 -1°C° 0.1 mm 2 mps 648 mmHg 85%
    16:00 -2°C° 0.1 mm 2 mps 648 mmHg 88%
    17:00 0°C° 0.1 mm 1 mps 648 mmHg 90%
    18:00 -1°C° 0.1 mm 1 mps 649 mmHg 92%
    19:00 -2°C° 0 mm 1 mps 649 mmHg 92%
    20:00 -2°C° 0 mm 1 mps 649 mmHg 92%
    21:00 -2°C° 0 mm 1 mps 649 mmHg 92%
    22:00 -2°C° 0 mm 1 mps 650 mmHg 91%
    23:00 -3°C° 0 mm 1 mps 650 mmHg 89%

    25 January, Thursday

    Time Temperature Precipitation Wind Pressure Humidity
    00:00 -3°C° 0 mm 1 mps 650 mmHg 88%
    01:00 -3°C° 0 mm 1 mps 650 mmHg 86%
    02:00 -2°C° 0 mm 1 mps 650 mmHg 85%
    03:00 -2°C° 0 mm 1 mps 650 mmHg 84%
    04:00 -2°C° 0 mm 1 mps 650 mmHg 83%
    05:00 -2°C° 0 mm 1 mps 650 mmHg 81%
    06:00 -2°C° 0 mm 1 mps 651 mmHg 80%
    07:00 -2°C° 0 mm 1 mps 651 mmHg 79%
    08:00 -1°C° 0 mm 1 mps 651 mmHg 77%
    09:00 -1°C° 0 mm 1 mps 652 mmHg 76%
    10:00 -1°C° 0 mm 2 mps 652 mmHg 73%
    11:00 +1°C° 0 mm 2 mps 652 mmHg 71%
    12:00 +3°C° 0 mm 2 mps 652 mmHg 68%
    13:00 +3°C° 0 mm 2 mps 652 mmHg 69%
    14:00 +3°C° 0 mm 2 mps 652 mmHg 69%
    15:00 +3°C° 0 mm 2 mps 651 mmHg 70%
    16:00 +2°C° 0 mm 2 mps 651 mmHg 72%
    17:00 +1°C° 0 mm 2 mps 651 mmHg 75%
    18:00 -2°C° 0 mm 2 mps 651 mmHg 78%
    19:00 -2°C° 0 mm 2 mps 651 mmHg 77%
    20:00 -2°C° 0 mm 2 mps 652 mmHg 77%
    21:00 -2°C° 0 mm 2 mps 652 mmHg 76%
    22:00 -3°C° 0 mm 2 mps 652 mmHg 75%
    23:00 -3°C° 0 mm 2 mps 652 mmHg 75%
    Show more